Weather History for KHWV - September, 2012

Change the Weather History Date:

Thursday, September 27, 2012

  Actual Average (KISP) Record (KISP)
Temperature  
Mean Temperature 68 °F 61 °F  
Max Temperature 75 °F 70 °F 86 °F (1998)
Min Temperature 61 °F 53 °F 39 °F (1989)
Degree Days  
Heating Degree Days 0 5  
Month to date heating degree days 55  
Since 1 July heating degree days 60  
Cooling Degree Days 3 1  
Month to date cooling degree days 88  
Year to date cooling degree days 774  
Growing Degree Days 18 (Base 50)    
Moisture  
Dew Point 62 °F    
Average Humidity 81    
Maximum Humidity 93    
Minimum Humidity 57    
Precipitation  
Precipitation 0.01 in 0.13 in 1.15 in (2009)
Month to date precipitation 3.19  
Year to date precipitation 34.33  
Snow  
Snow 0.00 in 0.00 in - ()
Month to date snowfall 0.0  
Since 1 July snowfall 0.0  
Snow Depth -    
Sea Level Pressure  
Sea Level Pressure 30.14 in    
Wind  
Wind Speed 3 mph (SW)    
Max Wind Speed 9 mph    
Max Gust Speed -    
Visibility 9 miles    
Events Rain    
T = Trace of Precipitation, MM = Missing Value Source: NWS Daily Summary

Daily Weather History Graph

Daily Weather History Graph

Search for Another Location

Airport or City:

Trip Planner

Search our weather history database for the weather conditions in past years. The results will help you decide how hot, cold, wet, or windy it might be!

Date:

Astronomy

Sep. 27, 2012 Rise Set
Actual Time 6:44 AM EDT 6:39 PM EDT
Civil Twilight 6:17 AM EDT 7:06 PM EDT
Nautical Twilight 5:45 AM EDT 7:38 PM EDT
Astronomical Twilight 5:12 AM EDT 8:10 PM EDT
Moon 5:10 PM EDT (9/27) 4:09 AM EDT (9/27)
Length of Visible Light 12h 49m
Length of Day
11h 54m
Waxing Gibbous, 94% of the Moon is Illuminated
Sep 27
Waxing Gibbous
Sep 29
Full
Oct 8
Last Quarter
Oct 15
New
Oct 21
First Quarter

Hourly Weather History & Observations

Time (EDT) Temp. Dew Point Humidity Pressure Visibility Wind Dir Wind Speed Gust Speed Precip Events Conditions
12:56 AM 68.0 °F 64.0 °F 87% 30.06 in 10.0 mi SSW 3.5 mph - N/A   Mostly Cloudy
1:56 AM 66.9 °F 63.0 °F 87% 30.06 in 10.0 mi Calm Calm - N/A   Mostly Cloudy
3:56 AM 68.0 °F 63.0 °F 84% 30.05 in 10.0 mi West 3.5 mph - N/A   Partly Cloudy
4:56 AM 66.9 °F 62.1 °F 84% 30.06 in 10.0 mi Calm Calm - N/A   Mostly Cloudy
5:56 AM 66.9 °F 63.0 °F 87% 30.10 in 10.0 mi West 4.6 mph - 0.00 in Rain Light Rain
6:56 AM 66.0 °F 63.0 °F 90% 30.12 in 8.0 mi WNW 3.5 mph - 0.00 in Rain Light Rain
7:56 AM 66.9 °F 63.0 °F 87% 30.14 in 10.0 mi West 3.5 mph - 0.01 in   Overcast
8:56 AM 68.0 °F 64.0 °F 87% 30.16 in 10.0 mi WNW 3.5 mph - N/A   Overcast
9:56 AM 68.0 °F 64.0 °F 87% 30.14 in 10.0 mi Calm Calm - N/A   Mostly Cloudy
10:56 AM 70.0 °F 64.0 °F 81% 30.14 in 10.0 mi NNE 3.5 mph - N/A   Scattered Clouds
11:56 AM 72.0 °F 63.0 °F 73% 30.14 in 10.0 mi Variable 5.8 mph - N/A   Mostly Cloudy
12:28 PM 73.4 °F 60.8 °F 65% 30.15 in 10.0 mi North 6.9 mph - N/A   Mostly Cloudy
12:56 PM 73.0 °F 60.1 °F 64% 30.15 in 10.0 mi North 6.9 mph - N/A   Mostly Cloudy
1:56 PM 75.0 °F 59.0 °F 57% 30.14 in 10.0 mi Variable 3.5 mph - N/A   Partly Cloudy
2:56 PM 73.0 °F 64.0 °F 73% 30.13 in 10.0 mi SE 8.1 mph - N/A   Overcast
3:56 PM 71.1 °F 64.0 °F 78% 30.13 in 10.0 mi South 9.2 mph - N/A   Overcast
4:39 PM 71.6 °F 62.6 °F 73% 30.14 in 10.0 mi SSW 5.8 mph - N/A   Mostly Cloudy
4:56 PM 70.0 °F 63.0 °F 78% 30.14 in 10.0 mi SSW 5.8 mph - N/A   Overcast
5:56 PM 70.0 °F 63.0 °F 78% 30.15 in 10.0 mi South 5.8 mph - N/A   Overcast
6:16 PM 69.8 °F 62.6 °F 78% 30.16 in 10.0 mi SSW 4.6 mph - N/A   Mostly Cloudy
6:28 PM 69.8 °F 62.6 °F 78% 30.16 in 10.0 mi SSW 3.5 mph - N/A   Scattered Clouds
6:56 PM 66.9 °F 63.0 °F 87% 30.16 in 10.0 mi Calm Calm - N/A   Partly Cloudy
7:56 PM 64.0 °F 61.0 °F 90% 30.17 in 8.0 mi Calm Calm - N/A   Clear
8:56 PM 62.1 °F 60.1 °F 93% 30.17 in 6.0 mi Calm Calm - N/A   Clear
9:56 PM 62.1 °F 59.0 °F 90% 30.18 in 6.0 mi Calm Calm - N/A   Partly Cloudy
10:56 PM 61.0 °F 59.0 °F 93% 30.19 in 5.0 mi Calm Calm - N/A   Partly Cloudy
11:56 PM 64.0 °F 61.0 °F 90% 30.18 in 7.0 mi ESE 4.6 mph - N/A   Overcast